TimeCST,TemperatureF,Dew PointF,Humidity,Sea Level PressureIn,VisibilityMPH,Wind Direction,Wind SpeedMPH,Gust SpeedMPH,PrecipitationIn,Events,Conditions,WindDirDegrees,DateUTC
12:53 AM,39.9,35.1,83,30.35,10.0,East,3.5,-,N/A,,Clear,80,2012-11-18 06:53:00
1:53 AM,39.0,35.1,86,30.35,10.0,Calm,Calm,-,N/A,,Clear,0,2012-11-18 07:53:00
2:53 AM,39.9,35.1,83,30.35,9.0,Calm,Calm,-,N/A,,Clear,0,2012-11-18 08:53:00
3:53 AM,35.1,34.0,96,30.33,8.0,Calm,Calm,-,N/A,,Clear,0,2012-11-18 09:53:00
4:53 AM,34.0,34.0,100,30.33,8.0,East,3.5,-,N/A,,Clear,80,2012-11-18 10:53:00
5:53 AM,33.1,33.1,100,30.35,7.0,Calm,Calm,-,N/A,,Clear,0,2012-11-18 11:53:00
6:53 AM,34.0,34.0,100,30.34,5.0,ENE,3.5,-,N/A,,Clear,60,2012-11-18 12:53:00
7:53 AM,37.9,36.0,93,30.36,6.0,Calm,Calm,-,N/A,,Clear,0,2012-11-18 13:53:00
8:53 AM,41.0,37.0,86,30.38,7.0,Calm,Calm,-,N/A,,Clear,0,2012-11-18 14:53:00
9:53 AM,51.1,41.0,68,30.37,9.0,SSE,4.6,-,N/A,,Clear,150,2012-11-18 15:53:00
10:53 AM,60.1,41.0,49,30.36,10.0,SSW,5.8,-,N/A,,Clear,200,2012-11-18 16:53:00
11:53 AM,62.1,39.9,44,30.34,10.0,South,6.9,-,N/A,,Clear,170,2012-11-18 17:53:00
12:53 PM,64.0,39.9,41,30.31,10.0,Variable,5.8,-,N/A,,Clear,0,2012-11-18 18:53:00
1:53 PM,64.9,37.0,36,30.28,10.0,NE,3.5,-,N/A,,Clear,50,2012-11-18 19:53:00
2:53 PM,66.0,36.0,33,30.26,10.0,ESE,6.9,-,N/A,,Clear,120,2012-11-18 20:53:00
3:53 PM,66.0,37.0,34,30.26,10.0,SE,6.9,-,N/A,,Clear,140,2012-11-18 21:53:00
4:53 PM,61.0,39.0,44,30.26,10.0,ESE,4.6,-,N/A,,Clear,120,2012-11-18 22:53:00
5:53 PM,55.9,39.0,53,30.27,9.0,Calm,Calm,-,N/A,,Clear,0,2012-11-18 23:53:00
6:53 PM,55.9,39.0,53,30.27,10.0,ESE,4.6,-,N/A,,Clear,120,2012-11-19 00:53:00
7:53 PM,54.0,39.0,57,30.29,10.0,SE,4.6,-,N/A,,Clear,130,2012-11-19 01:53:00
8:53 PM,51.1,39.9,66,30.30,10.0,ESE,4.6,-,N/A,,Clear,120,2012-11-19 02:53:00
9:53 PM,52.0,39.0,61,30.29,10.0,SE,4.6,-,N/A,,Clear,130,2012-11-19 03:53:00
10:53 PM,53.1,37.9,57,30.28,10.0,SE,5.8,-,N/A,,Clear,130,2012-11-19 04:53:00
11:53 PM,52.0,37.9,59,30.27,10.0,SE,8.1,-,N/A,,Clear,140,2012-11-19 05:53:00